Location: Betpouey
(42.8833°N, 0.0333°E)
Time: 07:19:49
(UTC+00:00)

BREEZE-M DEB (TANK) - Pass Details

Date: 01 December 2020
Orbit: 320 x 13925 km, 49.6° (Epoch: 17 January)

Event Time Altitude Azimuth Distance (km) Brightness Sun altitude
Rises 18:00:42 0° 233° (SW) 7,678 9.9 -16.8°
Reaches altitude 10° 18:07:48 10° 233° (SW) 4,846 8.6 -18.0°
Maximum altitude 18:17:34 74° 151° (SSE) 816 3.5 -19.8°
Enters shadow 18:18:43 46° 78° (ENE) 889 3.4 -20.0°
